Regional Weather Roundup
Issued by NWS

Home | Current Version | Previous Version | Graphics & Text | Print | Product List | Glossary Off
Versions: 1 2 3 4 5 6 7 8 9 10 11 12 13 14 15 16 17 18 19 20 21 22 23 24 25 26 27 28 29 30 31 32 33 34 35 36 37 38 39 40 41 42 43 44 45 46 47 48 49 50

000
ASUS43 KMPX 312110
RWRMN
WEATHER ROUNDUP FOR MINNESOTA
NATIONAL WEATHER SERVICE TWIN CITIES/CHANHASSEN MN
400 PM CDT TUE MAY 31 2016


NOTE: "FAIR" INDICATES FEW OR NO CLOUDS BELOW 12,000 FEET WITH NO
SIGNIFICANT WEATHER AND/OR OBSTRUCTIONS TO VISIBILITY. N/A MEANS
CURRENT SKY AND/OR WEATHER CONDITIONS ARE NOT AVAILABLE.

MNZ060>063-068>070-312200-
   Twin Cities Metro

CITY           SKY/WX    TMP DP  RH WIND       PRES   REMARKS
TWIN CITIES    CLOUDY    69  60  73 W6        29.86R
ST PAUL        CLOUDY    69  62  78 SW10      29.86R
CRYSTAL        CLOUDY    70  58  65 SW10      29.84S
BLAINE         CLOUDY    72  63  73 SW13      29.85R
EDEN PRAIRIE   CLOUDY    71  58  63 SW8       29.84F
SOUTH ST PAUL  LGT RAIN  68  63  83 SW8       29.87R
LAKE ELMO      RAIN      68  63  83 SW6       29.87R
$$
MNZ001>005-007-008-013>017-022>024-027-028-312200-
   Northwest Minnesota

CITY           SKY/WX    TMP DP  RH WIND       PRES   REMARKS
BEMIDJI        PTSUNNY   65  58  78 E9        29.75S
HALLOCK        PTSUNNY   68  55  64 S18G24    29.67R
ROSEAU         PTSUNNY   57  54  88 E14G20    29.73S
WARROAD        CLOUDY    55  52  88 SE13      29.76S
THIEF RVR FALL CLOUDY    64  48  55 S18G25    29.73R
CROOKSTON      CLOUDY    64  52  63 SW16G23   29.72R
FOSSTON        MOSUNNY   66  55  68 SW21      29.75S
DETROIT LAKES  MOSUNNY   68  46  45 SW20      29.78S
MOORHEAD       MOSUNNY   66  46  48 SW16      29.75R
PARK RAPIDS    MOSUNNY   71  50  47 SW16G23   29.78R
MAHNOMEN       MOCLDY    65  52  62 SW17G25   29.75S
$$
MNZ006-009>011-018-025>026-312200-
   North Central Minnesota

CITY           SKY/WX    TMP DP  RH WIND       PRES   REMARKS
BAUDETTE       CLOUDY    53  51  93 SE12      29.79S
FLAG ISLAND    CLOUDY    52  50  93 E13G21    29.78F
INTL FALLS     CLOUDY    51  50  96 SE13      29.84S FOG
WASKISH        CLOUDY    57  55  94 SE10G18   29.78S
BIG FORK       CLOUDY    55  52  88 SE7       29.83S
LONGVILLE      MOSUNNY   64  59  82 SE6       29.79F
GRAND RAPIDS   CLOUDY    54  52  93 E9        29.84F
CRANE LAKE     DRIZZLE   48  48 100 CALM      29.89F
ORR            CLOUDY    52  48  87 CALM      29.83F
COOK           CLOUDY    54  52  94 SE9       29.86F
WALKER         CLOUDY    64  58  80 SE7       29.77S
$$
MNZ012-019>021-037-312200-
   Northeast Minnesota

CITY           SKY/WX    TMP DP  RH WIND       PRES   REMARKS
DULUTH         CLOUDY    47  45  93 E15       29.88F
ELY            CLOUDY    50  46  87 SE13G20   29.89F
HIBBING        CLOUDY    51  50  96 SE7       29.86F
EVELETH        CLOUDY    52  50  93 E5        29.88S
DULUTH HARBOR  CLOUDY    45  43  93 NE22      29.92F
TWO HARBORS    CLOUDY    48  45  87 NE15G22   29.89F
SILVER BAY     LGT RAIN  45  45 100 NE7G20    29.92F
GRAND MARAIS     N/A     48  42  80 NE14G24   29.99F
G MARAIS ARPRT HVY RAIN  45  39  81 E13G21    29.99S
$$
MNZ029>031-032-039>041-046>048-054>057-064-312200-
   West Central Minnesota

CITY           SKY/WX    TMP DP  RH WIND       PRES   REMARKS
FERGUS FALLS   PTSUNNY   68  46  45 SW17G26   29.76S
WHEATON        MOSUNNY   72  50  46 SW15      29.81S
MORRIS         SUNNY     72  48  43 W13G25    29.82S
ALEXANDRIA     MOSUNNY   70  50  49 SW16      29.83S
ELBOW LAKE     PTSUNNY   68  47  45 SW18G26   29.81S
WADENA         MOSUNNY   68  52  56 SW14G22   29.79F
GLENWOOD       MOSUNNY   70  52  52 SW14      29.84S
APPLETON       MOSUNNY   73  43  33 W18G26    29.82S
BENSON         SUNNY     72  43  35 W16       29.83S
ORTONVILLE     SUNNY     72  45  37 W12G24    29.81F
MADISON        MOSUNNY   72  45  37 W18G26    29.83F
WILLMAR        FAIR      73  52  46 W20G25    29.84F
$$
MNZ033>034-036-042>043-049>051-058-059-312200-
   Central Minnesota

CITY           SKY/WX    TMP DP  RH WIND       PRES   REMARKS
ST CLOUD       MOSUNNY   73  54  51 SW14G22   29.82F
SAUK CENTRE    FAIR      71  51  50 SW13      29.82F
PAYNESVILLE    MOSUNNY   72  51  46 SW14G20   29.84S
AITKIN         CLOUDY    66  57  72 E6        29.80F
PINE RIVER     PTSUNNY   68  55  64 S12       29.82S
BRAINERD       MOSUNNY   72  54  53 S13G22    29.80F
STAPLES        MOSUNNY   68  46  45 SW13G20   29.80S
LONG PRAIRIE   FAIR      70  52  52 S15       29.83S
LITTLE FALLS   MOSUNNY   72  50  46 SW9G16    29.81F
LITCHFIELD     MOSUNNY   72  54  53 W6        29.84F
BUFFALO        CLOUDY    72  56  56 SW6       29.85S
MAPLE LAKE     MOSUNNY   74  61  63 S6        29.85S
HUTCHINSON     MOSUNNY   74  56  54 SW9       29.85F
$$
MNZ037-044-045-052-053-312200-
   East Central Minnesota

CITY           SKY/WX    TMP DP  RH WIND       PRES   REMARKS
PRINCETON      PTSUNNY   73  57  56 SW8       29.84S
MORA           CLOUDY    68  57  68 SW10G16   29.85R
CAMBRIDGE      CLOUDY    73  59  60 SW9       29.82S
RUSH CITY      CLOUDY    70  60  71 SW9G18    29.84S
MOOSE LAKE     CLOUDY    48  45  87 NE7       29.85S
HINCKLEY       MOCLDY    72  64  78 S12       29.83S
CLOQUET        CLOUDY    46  45  93 E12       29.87F
MCGREGOR       CLOUDY    55  54  94 E8        29.85F
$$
MNZ071>073-080-081-089-090-097-098-312200-
   Southwest Minnesota

CITY           SKY/WX    TMP DP  RH WIND       PRES   REMARKS
MONTEVIDEO     SUNNY     73  48  40 NW10G17   29.86S
GRANITE FALLS  SUNNY     73  49  42 W13G23    29.86F
CANBY          SUNNY     74  46  36 SW17G26   29.86S
MARSHALL       MOSUNNY   72  46  39 W20       29.85F
REDWOOD FALLS  SUNNY     73  48  41 W13       29.84F
OLIVIA         SUNNY     64  43  45 W12G18    29.84F
PIPESTONE      SUNNY     70  46  43 W13       29.89F
WINDOM         SUNNY     72  52  49 W12       29.88F
WORTHINGTON    MOSUNNY   70  48  45 W10G18    29.90F
JACKSON        SUNNY     72  48  43 W9G20     29.89S
TRACY          SUNNY     72  51  48 W12G18    29.88F
SLAYTON        SUNNY     69  45  41 W13G18    29.90F
$$
MNZ065>067-074>077-082>085-091>093-312200-
   South Central Minnesota

CITY           SKY/WX    TMP DP  RH WIND       PRES   REMARKS
MANKATO        PTSUNNY   70  57  64 SW7       29.87F
NEW ULM        MOSUNNY   72  54  53 W12G18    29.86S
ST JAMES       PTSUNNY  N/A N/A N/A W12       29.88S
FAIRMONT       CLOUDY    72  54  53 W15       29.88F
GLENCOE        MOSUNNY   74  60  62 SW7       29.84F
FARIBAULT      CLOUDY    66  63  88 SW8       29.89R
OWATONNA       CLOUDY    68  61  77 W8        29.89S
WASECA         LGT RAIN  63  59  88 SW9       29.91R
ALBERT LEA     CLOUDY    66  61  82 W9        29.90
$$
MNZ078>079-086>088-094>096-312200-
   Southeast Minnesota

CITY           SKY/WX    TMP DP  RH WIND       PRES   REMARKS
ROCHESTER      RAIN      65  63  93 W5        29.90F FOG
RED WING       HVY RAIN  68  64  88 S3        29.85S
STANTON        LGT RAIN  68  60  76 W8        29.86S
DODGE CENTER   LGT RAIN  64  63  94 W7        29.89F
WINONA         LGT RAIN  72  63  73 W12G23    29.84R
AUSTIN         LGT RAIN  66  63  88 CALM      29.88F
PRESTON        RAIN      61  60  95 W8        29.90F
$$
ABBREVIATIONS USED IN REMARKS
   TC - TEMPERATURES IN CELSIUS
  WCI - WIND CHILL INDEX
   HX - HEAT INDEX
  VSB - VISIBILITY
$$




USA.gov is the U.S. government's official web portal to all federal, state and local government web resources and services.